[[{"header":{"parameterUnit":"m.s-1","parameterCategory":2,"la1":30.2991,"la2":30.254,"lo1":-89.0895,"lo2":-89.0444,"dy":0.0017,"dx":0.0017,"nx":28,"ny":28,"refTime":"2025-03-11T03:00:00:Z","depth":"0","parameterNumber":2,"parameterNumberName":"U-component_of_CURRENTS"},"data":[0,0,0,0,0,0,0,0,0,0,0,0,0,0,0,0,0,0,0,0,0,0,0,0,0,0,0,0,0,0,0,0,0,0,0,0,0,0,0,0,0,0,0,0,0,0,0,0,0,0,0,0,0,0,0,0,0,0,0.3315,0.3316,0,0.329,0.329,0.3289,0.3308,0.3309,0.3311,0.3312,0.3238,0.3235,0.3232,0,0,0,0,0,0,0,0,0,0,0,0,0,0.3275,0.3276,0.3315,0.3316,0.3316,0.3291,0.329,0.3289,0.3308,0.331,0.3311,0.3313,0.3239,0.3235,0.3231,0,0,0,0,0,0,0,0,0,0,0,0,0,0.327,0.3276,0.3315,0.3327,0.3328,0.3291,0.329,0.3288,0.3307,0.331,0.3312,0.3314,0.3241,0.3236,0.3231,0.3159,0,0,0.3216,0.3214,0,0,0,0,0,0,0,0,0.3271,0.3271,0.3325,0.3326,0.3328,0.331,0.3249,0.3245,0.3307,0.3309,0.3312,0.3315,0.326,0.3254,0.3236,0.3156,0.3152,0.3216,0.3213,0.321,0.3209,0,0,0,0,0,0,0,0.3271,0.3272,0.3299,0.3325,0.3327,0.3298,0.33,0.3247,0.3267,0.3309,0.3312,0.3318,0.326,0.3241,0.3235,0.3151,0.3216,0.3211,0.3208,0.3206,0.3139,0.314,0,0,0,0,0,0,0.329,0.3272,0.33,0.3299,0.331,0.3298,0.33,0.3308,0.3269,0.3267,0.3316,0.3319,0.3248,0.324,0.3232,0.3248,0.321,0.3206,0.3203,0.3137,0.3139,0.314,0,0,0,0,0,0,0.3289,0.3292,0.3301,0.329,0.329,0.3298,0.3306,0.3307,0.3302,0.3276,0.3273,0.3314,0.325,0.3239,0.3199,0.3242,0.3204,0.3199,0.3136,0.3138,0.3139,0.3214,0,0,0,0,0,0,0.3288,0.3292,0.3291,0.3291,0.3292,0.3264,0.3305,0.3305,0.3305,0.3308,0.3272,0.3267,0.325,0.3206,0.3194,0.3235,0.3195,0.3135,0.3137,0.3139,0.321,0.3218,0.3225,0,0,0,0,0,0.3286,0.3272,0.3291,0.3294,0.3295,0.3263,0.3258,0.3267,0.3303,0.3275,0.3276,0.3269,0.3214,0.3201,0.3187,0.3228,0.3134,0.3136,0.3139,0.3207,0.3216,0.3225,0,0,0,0,0,0,0.3237,0.3274,0.3294,0.3288,0.3275,0.3269,0.3249,0.3267,0.3244,0.3258,0.3248,0.324,0.3233,0.3206,0.3194,0.3218,0.3185,0.3185,0.3242,0.3251,0.3258,0.3329,0.3191,0,0,0,0,0,0.3233,0.3236,0.3255,0.324,0.3243,0.325,0.324,0.3248,0.3239,0.3233,0.3214,0.3214,0.3226,0.3219,0.3196,0.3177,0.3226,0.3206,0.3214,0.322,0.327,0.3374,0.3397,0.3148,0.3148,0.3148,0,0,0.3204,0.3226,0.3225,0.323,0.3228,0.3231,0.3247,0.3229,0.3255,0.3224,0.3227,0.3216,0.3224,0.3227,0.3224,0.3213,0.3311,0.3223,0.3229,0.3276,0.338,0.3405,0.3427,0.315,0.315,0.315,0,0,0.3141,0.3177,0.3158,0.3167,0.3174,0.3194,0.3196,0.3192,0.3217,0.32,0.3231,0.3257,0.3206,0.3266,0.3288,0.3317,0.334,0.3297,0.3396,0.3496,0.3519,0.3539,0.3616,0.3643,0.3309,0.331,0.331,0,0.3102,0.3117,0.3136,0.3133,0.3171,0.319,0.3202,0.3216,0.3199,0.3253,0.3206,0.3271,0.3253,0.3372,0.3391,0.3343,0.3388,0.336,0.3511,0.3532,0.3552,0.3626,0.3655,0.3313,0.3313,0.3313,0.3312,0,0.3036,0.3067,0.3058,0.3098,0.3118,0.3126,0.3185,0.3208,0.3246,0.3283,0.3366,0.3353,0.342,0.3415,0.3408,0.356,0.354,0.3502,0.3496,0.3583,0.3653,0.3682,0.3319,0.3318,0.3316,0.3315,0,0,0.2922,0.3003,0.3004,0.3067,0.3129,0.3149,0.3222,0.332,0.3413,0.3405,0.3532,0.3569,0.3593,0.3624,0.363,0.3715,0.3871,0.3674,0.3677,0.3766,0.4087,0.4063,0.4092,0.3856,0.3862,0.3866,0.4074,0,0.2878,0.2912,0.2968,0.3038,0.309,0.3191,0.3266,0.3363,0.3438,0.3541,0.3629,0.3703,0.3668,0.3703,0.3796,0.385,0.3954,0.3819,0.3978,0.3984,0.3967,0.4128,0.3952,0.4123,0.4102,0.4107,0.411,0,0.2809,0.2871,0.2932,0.3107,0.3138,0.318,0.3386,0.3447,0.3619,0.3683,0.381,0.3853,0.4015,0.3934,0.4147,0.4057,0.4103,0.4132,0.414,0.4127,0.4017,0.4036,0.4177,0.4075,0.4155,0.4151,0.4148,0,0.2766,0.2867,0.2946,0.2993,0.3151,0.3232,0.3322,0.3489,0.3594,0.3779,0.3862,0.4042,0.4127,0.4237,0.4311,0.4241,0.452,0.442,0.4457,0.4453,0.4347,0.4325,0.4431,0.4601,0.46,0.46,0.4599,0,0.2742,0.2809,0.2935,0.2984,0.3111,0.3219,0.3367,0.3486,0.3662,0.3809,0.3925,0.4083,0.4206,0.4363,0.4407,0.4553,0.4613,0.4546,0.454,0.4362,0.434,0.4278,0.4226,0.4607,0.4606,0.4604,0.4603,0,0.2696,0.2763,0.2872,0.3038,0.309,0.3179,0.3376,0.3485,0.3641,0.3838,0.3903,0.4155,0.4373,0.4486,0.4681,0.4676,0.4683,0.4825,0.4602,0.4568,0.4466,0.4425,0.4409,0.4273,0.491,0.4911,0.4912,0,0.27,0.2734,0.2889,0.2957,0.3034,0.3174,0.327,0.3452,0.3571,0.3899,0.3994,0.427,0.4454,0.4736,0.4803,0.492,0.4762,0.4809,0.4654,0.4516,0.4465,0.4256,0.4125,0.4528,0.4526,0.4524,0.4523,0,0.2746,0.277,0.2875,0.2969,0.307,0.3176,0.3325,0.3412,0.3644,0.3803,0.4063,0.4235,0.4535,0.4619,0.4781,0.4823,0.4579,0.4776,0.47,0.4275,0.3991,0.3834,0.432,0.4507,0.4508,0.451,0.451,0.4511,0.2817,0.2864,0.2966,0.3045,0.3121,0.3181,0.3238,0.3386,0.3547,0.3765,0.4008,0.4184,0.4389,0.4606,0.4629,0.4562,0.451,0.4422,0.4416,0.424,0.4017,0.448,0.4609,0.4611,0.4613,0.4615,0.4616,0,0.2973,0.2991,0.3048,0.3125,0.3144,0.3182,0.3283,0.3307,0.3425,0.3645,0.3822,0.4003,0.4128,0.4263,0.4321,0.4198,0.3961,0.4111,0.3765,0.3676,0.4168,0.4057,0.399,0.3991,0.3991,0.3991,0.3991,0.3991,0.3098,0.3161,0.3128,0.3151,0.3155,0.3152,0.3173,0.3186,0.3284,0.3392,0.3475,0.3605,0.3884,0.4118,0.4056,0.395,0.3632,0.3502,0.3492,0.3839,0.3864,0.3888,0.3773,0.3647,0.3647,0.2791,0.2785,0.2781]},{"header":{"parameterUnit":"m.s-1","parameterCategory":2,"la1":30.2991,"la2":30.254,"lo1":-89.0895,"lo2":-89.0444,"dy":0.0017,"dx":0.0017,"nx":28,"ny":28,"refTime":"2025-03-11T03:00:00:Z","depth":"0","parameterNumber":3,"parameterNumberName":"V-component_of_CURRENTS"},"data":[0,0,0,0,0,0,0,0,0,0,0,0,0,0,0,0,0,0,0,0,0,0,0,0,0,0,0,0,0,0,0,0,0,0,0,0,0,0,0,0,0,0,0,0,0,0,0,0,0,0,0,0,0,0,0,0,0,0,-0.0291,-0.0291,0,-0.0294,-0.0294,-0.0294,-0.0346,-0.0347,-0.0348,-0.0349,-0.0415,-0.0415,-0.0416,0,0,0,0,0,0,0,0,0,0,0,0,0,-0.0348,-0.0347,-0.0291,-0.0291,-0.0291,-0.0294,-0.0294,-0.0294,-0.0346,-0.0347,-0.0349,-0.035,-0.0414,-0.0415,-0.0416,0,0,0,0,0,0,0,0,0,0,0,0,0,-0.0335,-0.0346,-0.0291,-0.0316,-0.0318,-0.0294,-0.0294,-0.0294,-0.0345,-0.0347,-0.0349,-0.0351,-0.0414,-0.0415,-0.0416,-0.0385,0,0,-0.0419,-0.0419,0,0,0,0,0,0,0,0,-0.0336,-0.0333,-0.0312,-0.0314,-0.0317,-0.032,-0.0338,-0.0328,-0.0345,-0.0336,-0.0349,-0.0352,-0.0387,-0.039,-0.0387,-0.0388,-0.0391,-0.0419,-0.0419,-0.042,-0.042,0,0,0,0,0,0,0,-0.0337,-0.0334,-0.0294,-0.0312,-0.0315,-0.0333,-0.0333,-0.0336,-0.0353,-0.0337,-0.0341,-0.0338,-0.0389,-0.0386,-0.0389,-0.0392,-0.0419,-0.042,-0.042,-0.0421,-0.0425,-0.0425,0,0,0,0,0,0,-0.0331,-0.0334,-0.0293,-0.0294,-0.033,-0.0331,-0.0331,-0.0318,-0.0352,-0.0358,-0.0337,-0.0341,-0.0384,-0.0388,-0.0392,-0.0391,-0.042,-0.0421,-0.0421,-0.0426,-0.0425,-0.0425,0,0,0,0,0,0,-0.0332,-0.0326,-0.0293,-0.0314,-0.0311,-0.0327,-0.0313,-0.0317,-0.0316,-0.0351,-0.0359,-0.0332,-0.0385,-0.0391,-0.0397,-0.0393,-0.0421,-0.0422,-0.0426,-0.0425,-0.0425,-0.0368,0,0,0,0,0,0,-0.0333,-0.0326,-0.0309,-0.0313,-0.0309,-0.0264,-0.0311,-0.0316,-0.0312,-0.0317,-0.0349,-0.0357,-0.0387,-0.0395,-0.0398,-0.0395,-0.0423,-0.0427,-0.0426,-0.0425,-0.037,-0.0365,-0.0361,0,0,0,0,0,-0.0335,-0.0288,-0.0308,-0.0303,-0.0287,-0.0263,-0.0261,-0.0282,-0.0309,-0.0292,-0.0327,-0.0356,-0.0393,-0.0395,-0.0398,-0.0395,-0.0427,-0.0426,-0.0425,-0.0372,-0.0366,-0.0361,0,0,0,0,0,0,-0.0277,-0.0289,-0.0311,-0.0264,-0.0264,-0.0271,-0.0247,-0.0271,-0.0282,-0.0293,-0.034,-0.0348,-0.0356,-0.0377,-0.0378,-0.0396,-0.0418,-0.0418,-0.0377,-0.0372,-0.0367,-0.0366,-0.0423,0,0,0,0,0,-0.0263,-0.0245,-0.0257,-0.0216,-0.0215,-0.0234,-0.0227,-0.0244,-0.0256,-0.0263,-0.0292,-0.0325,-0.0351,-0.0362,-0.0381,-0.0377,-0.0403,-0.0382,-0.0377,-0.0373,-0.0375,-0.0424,-0.0424,-0.0421,-0.0421,-0.0422,0,0,-0.0227,-0.023,-0.0218,-0.0206,-0.0207,-0.0192,-0.0233,-0.0211,-0.0211,-0.0267,-0.0268,-0.0302,-0.0345,-0.0353,-0.0358,-0.0372,-0.0379,-0.0372,-0.0368,-0.0373,-0.0423,-0.0423,-0.0423,-0.0421,-0.0421,-0.0421,0,0,-0.0148,-0.0151,-0.0121,-0.0122,-0.0124,-0.014,-0.0134,-0.0146,-0.0164,-0.0165,-0.0219,-0.0254,-0.0271,-0.0317,-0.034,-0.0318,-0.0351,-0.032,-0.0297,-0.0344,-0.0344,-0.0346,-0.0342,-0.0343,-0.032,-0.032,-0.032,0,-0.011,-0.0078,-0.0101,-0.0078,-0.0074,-0.0117,-0.0088,-0.0104,-0.0121,-0.0134,-0.0157,-0.022,-0.026,-0.0297,-0.0301,-0.0309,-0.0321,-0.0314,-0.0338,-0.034,-0.0342,-0.0339,-0.0341,-0.0317,-0.0318,-0.0318,-0.0318,0,-0.0024,-0.0004,0.0023,0.0019,0.0025,0.0051,0.0013,0.0008,-0.0027,-0.0055,-0.009,-0.0153,-0.0194,-0.0219,-0.0256,-0.0292,-0.0288,-0.0324,-0.0352,-0.0339,-0.0335,-0.0339,-0.0313,-0.0314,-0.0315,-0.0316,0,0,0.0067,0.0076,0.0081,0.0089,0.0072,0.0091,0.0085,0.0069,0.0072,0.0017,0.0013,-0.0073,-0.0117,-0.0149,-0.0207,-0.0263,-0.0288,-0.0297,-0.0301,-0.029,-0.0349,-0.0292,-0.029,-0.0329,-0.033,-0.0331,-0.0326,0,0.0133,0.0189,0.017,0.0219,0.0242,0.0193,0.0198,0.0172,0.014,0.0129,0.0026,0.0006,-0.0087,-0.0102,-0.0177,-0.0251,-0.03,-0.0283,-0.0366,-0.0367,-0.0318,-0.0294,-0.0275,-0.0266,-0.033,-0.0331,-0.0331,0,0.0208,0.0233,0.0287,0.0305,0.0312,0.0326,0.0322,0.0322,0.0273,0.025,0.0184,0.0124,0.0035,-0.0043,-0.0186,-0.0166,-0.0256,-0.0327,-0.0329,-0.0303,-0.0318,-0.0298,-0.0271,-0.0489,-0.0337,-0.0336,-0.0336,0,0.0271,0.0313,0.0356,0.0362,0.0374,0.0383,0.0383,0.0355,0.038,0.0326,0.0349,0.022,0.0198,0.0037,-0.0099,-0.0146,-0.0231,-0.0314,-0.0348,-0.0343,-0.0357,-0.0351,-0.0555,-0.0426,-0.0426,-0.0426,-0.0426,0,0.0338,0.0377,0.0389,0.0413,0.0478,0.0451,0.0511,0.0489,0.0493,0.0568,0.0417,0.047,0.0215,0.0145,-0.0036,-0.0161,-0.0179,-0.0331,-0.0344,-0.033,-0.0322,-0.0538,-0.0667,-0.0426,-0.0426,-0.0426,-0.0426,0,0.0398,0.0404,0.0465,0.0491,0.0508,0.0551,0.0614,0.0664,0.0644,0.0741,0.0738,0.067,0.0593,0.0365,0.0159,-0.0027,-0.0298,-0.0234,-0.0166,-0.0172,-0.0441,-0.0565,-0.076,-0.0851,-0.0297,-0.0295,-0.0294,0,0.0432,0.0463,0.0529,0.0587,0.0603,0.0668,0.0725,0.0732,0.0814,0.0906,0.098,0.0936,0.0972,0.0691,0.0348,0.006,-0.0191,-0.0135,-0.0256,-0.044,-0.059,-0.0694,-0.0766,-0.0241,-0.024,-0.0239,-0.0238,0,0.0497,0.0515,0.0572,0.0686,0.0761,0.0863,0.0955,0.1052,0.1113,0.1233,0.1416,0.1458,0.1201,0.0942,0.0517,0.0283,-0.0289,-0.0118,-0.0359,-0.0597,-0.0679,-0.0774,-0.0228,-0.0227,-0.0228,-0.0229,-0.0229,-0.023,0.0549,0.0606,0.0683,0.0798,0.0907,0.106,0.1174,0.1328,0.1524,0.1764,0.178,0.1914,0.1448,0.0885,0.0529,-0.0149,-0.019,-0.0391,-0.0528,-0.0617,-0.0714,-0.0103,-0.009,-0.009,-0.009,-0.009,-0.009,0,0.0601,0.0676,0.0792,0.094,0.1087,0.112,0.1336,0.1497,0.1792,0.2045,0.2242,0.2111,0.1542,0.0897,-0.0015,-0.049,-0.0713,-0.0765,-0.0967,-0.1026,-0.0525,-0.0533,-0.0554,-0.0554,-0.0554,-0.0554,-0.0554,-0.0553,0.0634,0.0743,0.0804,0.1058,0.1182,0.1387,0.1527,0.1816,0.2047,0.2408,0.2528,0.2559,0.2023,0.04,-0.0693,-0.0941,-0.1329,-0.1386,-0.1565,-0.1291,-0.1269,-0.1248,-0.1289,-0.1468,-0.147,-0.2019,-0.2025,-0.2029]}],[{"header":{"parameterUnit":"m.s-1","parameterCategory":2,"la1":30.2991,"la2":30.254,"lo1":-89.0895,"lo2":-89.0444,"dy":0.0017,"dx":0.0017,"nx":28,"ny":28,"refTime":"2025-03-11T03:00:00:Z","depth":"2","parameterNumber":2,"parameterNumberName":"U-component_of_CURRENTS"},"data":[0,0,0,0,0,0,0,0,0,0,0,0,0,0,0,0,0,0,0,0,0,0,0,0,0,0,0,0,0,0,0,0,0,0,0,0,0,0,0,0,0,0,0,0,0,0,0,0,0,0,0,0,0,0,0,0,0,0,0.25,0.2501,0,0.2566,0.2567,0.2567,0.26,0.26,0.2601,0.2601,0.2618,0.2618,0.2618,0,0,0,0,0,0,0,0,0,0,0,0,0,0.2464,0.2464,0.25,0.2501,0.2502,0.2566,0.2567,0.2567,0.26,0.26,0.2601,0.2601,0.2618,0.2618,0.2618,0,0,0,0,0,0,0,0,0,0,0,0,0,0.2498,0.2464,0.25,0.2527,0.253,0.2566,0.2567,0.2568,0.26,0.26,0.2601,0.2601,0.2618,0.2618,0.2619,0.2618,0,0,0.262,0.262,0,0,0,0,0,0,0,0,0.2496,0.2499,0.2522,0.2525,0.2529,0.2576,0.256,0.2583,0.26,0.2572,0.2601,0.2601,0.26,0.2602,0.2613,0.2619,0.262,0.262,0.262,0.2621,0.2621,0,0,0,0,0,0,0,0.2494,0.2497,0.2525,0.2523,0.2527,0.2557,0.2561,0.2565,0.2582,0.2575,0.2578,0.2587,0.2601,0.2612,0.2613,0.262,0.262,0.2621,0.2621,0.2621,0.2676,0.2677,0,0,0,0,0,0,0.2484,0.2494,0.2523,0.2527,0.2514,0.2557,0.2562,0.256,0.2584,0.2588,0.2587,0.2588,0.2611,0.2613,0.2614,0.2656,0.2621,0.2621,0.2621,0.2675,0.2676,0.2677,0,0,0,0,0,0,0.2483,0.2486,0.252,0.2514,0.2521,0.2557,0.2555,0.2561,0.2587,0.2593,0.2597,0.2607,0.2612,0.2613,0.2631,0.2656,0.2621,0.2622,0.2673,0.2675,0.2677,0.2714,0,0,0,0,0,0,0.2482,0.2485,0.2484,0.2513,0.2521,0.2548,0.2555,0.2562,0.2592,0.2595,0.2612,0.2613,0.2612,0.2631,0.2632,0.2656,0.2622,0.2672,0.2674,0.2676,0.2711,0.2717,0.2721,0,0,0,0,0,0.248,0.2473,0.2483,0.2487,0.2516,0.2549,0.2556,0.2582,0.2592,0.2605,0.2619,0.2613,0.2646,0.2632,0.2633,0.2657,0.2671,0.2674,0.2676,0.2709,0.2716,0.2721,0,0,0,0,0,0,0.2447,0.2477,0.2488,0.2488,0.2521,0.2555,0.2571,0.259,0.2613,0.2618,0.2623,0.2625,0.2653,0.2649,0.2634,0.2681,0.2659,0.2662,0.2684,0.269,0.2695,0.274,0.2623,0,0,0,0,0,0.2441,0.2451,0.2484,0.2486,0.2505,0.2542,0.256,0.2581,0.2605,0.2617,0.2627,0.2642,0.2663,0.2671,0.2682,0.2702,0.2741,0.2721,0.2726,0.273,0.2768,0.2851,0.2868,0.2686,0.2686,0.2686,0,0,0.2427,0.2447,0.2451,0.2482,0.2511,0.2541,0.2554,0.2587,0.2615,0.2613,0.2647,0.2658,0.2672,0.27,0.2712,0.27,0.2797,0.2734,0.2737,0.2774,0.2856,0.2874,0.289,0.2688,0.2687,0.2687,0,0,0.2414,0.2428,0.2439,0.247,0.2517,0.2545,0.2558,0.26,0.2624,0.2653,0.2668,0.27,0.2712,0.2742,0.2755,0.2795,0.2822,0.2793,0.2856,0.2935,0.2951,0.2966,0.3018,0.3037,0.2795,0.2795,0.2795,0,0.2397,0.2417,0.2447,0.2473,0.2505,0.2549,0.2579,0.261,0.265,0.2696,0.2665,0.2754,0.2738,0.2823,0.2828,0.2809,0.2857,0.2827,0.2944,0.296,0.2975,0.3024,0.3045,0.2797,0.2797,0.2797,0.2797,0,0.2399,0.2422,0.2436,0.2486,0.2521,0.2556,0.2607,0.2652,0.2682,0.2728,0.2814,0.2813,0.288,0.2867,0.2852,0.2961,0.296,0.294,0.2931,0.2996,0.3042,0.3064,0.2801,0.28,0.2799,0.2799,0,0,0.2342,0.2422,0.2427,0.2468,0.2537,0.257,0.2634,0.2725,0.2804,0.2836,0.2936,0.2961,0.3,0.302,0.302,0.3074,0.3176,0.3055,0.3058,0.3112,0.3356,0.3282,0.3298,0.3189,0.3193,0.3197,0.3339,0,0.2342,0.2393,0.2435,0.2499,0.2539,0.2614,0.268,0.277,0.2844,0.2945,0.3002,0.3077,0.3049,0.3081,0.3143,0.3175,0.324,0.314,0.3283,0.3287,0.3219,0.3323,0.3052,0.3152,0.336,0.3363,0.3366,0,0.233,0.2377,0.2432,0.2543,0.257,0.2618,0.2769,0.283,0.299,0.306,0.3181,0.3219,0.3324,0.326,0.3412,0.3359,0.3376,0.3388,0.3393,0.3338,0.3254,0.3126,0.3183,0.3402,0.3399,0.3396,0.3394,0,0.229,0.2376,0.2427,0.2459,0.2582,0.2644,0.272,0.2876,0.2972,0.3142,0.3226,0.3373,0.3438,0.3514,0.3532,0.3492,0.3679,0.3617,0.3579,0.3572,0.3379,0.3348,0.374,0.374,0.3739,0.3739,0.3738,0,0.2275,0.2314,0.242,0.2449,0.2546,0.2634,0.2766,0.2877,0.3055,0.3183,0.3283,0.3397,0.3508,0.3604,0.3612,0.3679,0.3756,0.3637,0.3628,0.3379,0.3348,0.359,0.3571,0.3744,0.3743,0.3742,0.3741,0,0.2222,0.2281,0.2351,0.2481,0.2526,0.2595,0.2779,0.2885,0.305,0.3214,0.3266,0.3465,0.3589,0.367,0.3792,0.3774,0.3827,0.382,0.351,0.3462,0.3646,0.3627,0.3818,0.3817,0.3816,0.3816,0.3815,0,0.2203,0.2231,0.2354,0.2406,0.2468,0.2587,0.2678,0.2867,0.2966,0.324,0.3295,0.3489,0.3584,0.3751,0.3763,0.381,0.3843,0.3573,0.3442,0.3695,0.3667,0.3648,0.3631,0.3189,0.3184,0.3179,0.3175,0,0.2185,0.2222,0.229,0.2389,0.2478,0.2567,0.2691,0.277,0.2983,0.31,0.3265,0.3368,0.3552,0.3496,0.3577,0.3557,0.3544,0.3481,0.3868,0.3205,0.3112,0.308,0.3082,0.3134,0.3139,0.3142,0.3144,0.3145,0.2186,0.2222,0.2313,0.2383,0.2471,0.2523,0.2553,0.2671,0.2783,0.2921,0.3106,0.3169,0.3269,0.3256,0.3182,0.3142,0.3373,0.322,0.323,0.3246,0.3142,0.3052,0.3043,0.3047,0.305,0.3052,0.3055,0,0.221,0.2243,0.2308,0.238,0.2404,0.248,0.2542,0.2526,0.2558,0.2728,0.2821,0.2685,0.2687,0.277,0.2655,0.2679,0.2612,0.2564,0.2442,0.2489,0.2529,0.2381,0.2084,0.208,0.2077,0.2074,0,0,0.2248,0.228,0.2276,0.228,0.2325,0.2315,0.2311,0.2282,0.2328,0.2325,0.2353,0.2595,0.2722,0.2365,0.2337,0.2184,0.2306,0.2105,0.2898,0.2804,0.2838,0.2941,0.2773,0,0,0,0,0]},{"header":{"parameterUnit":"m.s-1","parameterCategory":2,"la1":30.2991,"la2":30.254,"lo1":-89.0895,"lo2":-89.0444,"dy":0.0017,"dx":0.0017,"nx":28,"ny":28,"refTime":"2025-03-11T03:00:00:Z","depth":"2","parameterNumber":3,"parameterNumberName":"V-component_of_CURRENTS"},"data":[0,0,0,0,0,0,0,0,0,0,0,0,0,0,0,0,0,0,0,0,0,0,0,0,0,0,0,0,0,0,0,0,0,0,0,0,0,0,0,0,0,0,0,0,0,0,0,0,0,0,0,0,0,0,0,0,0,0,0.0031,0.003,0,-0.0053,-0.0054,-0.0055,-0.0104,-0.0104,-0.0104,-0.0104,-0.0194,-0.0196,-0.0198,0,0,0,0,0,0,0,0,0,0,0,0,0,0.01,0.0099,0.0031,0.003,0.0029,-0.0052,-0.0054,-0.0055,-0.0104,-0.0104,-0.0104,-0.0104,-0.0193,-0.0196,-0.0198,0,0,0,0,0,0,0,0,0,0,0,0,0,0.0048,0.0099,0.0032,-0.0004,-0.0008,-0.0052,-0.0054,-0.0055,-0.0104,-0.0104,-0.0104,-0.0105,-0.0192,-0.0195,-0.0199,-0.0215,0,0,-0.0209,-0.021,0,0,0,0,0,0,0,0,0.0051,0.0045,0.0002,-0.0002,-0.0006,-0.0067,-0.0062,-0.0109,-0.0104,-0.0069,-0.0104,-0.0105,-0.0151,-0.0158,-0.0174,-0.022,-0.0223,-0.0209,-0.0211,-0.0213,-0.0214,0,0,0,0,0,0,0,0.0054,0.0048,-0.0003,0.0001,-0.0004,-0.0033,-0.004,-0.0072,-0.0108,-0.0072,-0.0075,-0.0083,-0.0154,-0.0171,-0.0177,-0.0225,-0.0209,-0.0212,-0.0214,-0.0216,-0.0279,-0.0279,0,0,0,0,0,0,0.0069,0.0052,-0.0,-0.0005,0.0023,-0.0034,-0.0042,-0.0048,-0.0108,-0.0117,-0.0083,-0.0085,-0.0165,-0.0173,-0.018,-0.0185,-0.0213,-0.0216,-0.0218,-0.0279,-0.0279,-0.0279,0,0,0,0,0,0,0.0071,0.0065,0.0003,0.0022,0.0012,-0.0034,-0.0041,-0.005,-0.0067,-0.0116,-0.0126,-0.0091,-0.0166,-0.0175,-0.0203,-0.0189,-0.0217,-0.022,-0.028,-0.0279,-0.0279,-0.0207,0,0,0,0,0,0,0.0073,0.0067,0.0066,0.0023,0.0012,-0.0017,-0.0041,-0.0051,-0.0071,-0.0075,-0.0126,-0.0135,-0.0167,-0.0198,-0.0207,-0.0195,-0.0223,-0.028,-0.028,-0.0279,-0.0209,-0.0204,-0.0199,0,0,0,0,0,0.0076,0.0078,0.0066,0.006,0.0013,-0.0016,-0.0025,-0.006,-0.0071,-0.0076,-0.0109,-0.0133,-0.02,-0.0201,-0.0211,-0.0199,-0.0281,-0.028,-0.0279,-0.0212,-0.0205,-0.0199,0,0,0,0,0,0,0.0106,0.0072,0.0058,0.005,0.0022,-0.0024,-0.0033,-0.0055,-0.0086,-0.0088,-0.0133,-0.0144,-0.0164,-0.0193,-0.0192,-0.0216,-0.0243,-0.0244,-0.0188,-0.0182,-0.0177,-0.0152,-0.0226,0,0,0,0,0,0.0113,0.0108,0.007,0.0063,0.0052,0.0011,-0.0005,-0.0026,-0.0059,-0.0073,-0.0108,-0.0142,-0.0169,-0.0184,-0.0216,-0.023,-0.0257,-0.0228,-0.0223,-0.0218,-0.0206,-0.0243,-0.024,-0.0276,-0.0276,-0.0276,0,0,0.0122,0.0104,0.01,0.007,0.0045,0.0041,0.0001,-0.0018,-0.0018,-0.0078,-0.0088,-0.0128,-0.017,-0.0186,-0.0196,-0.0207,-0.0222,-0.0217,-0.0213,-0.0203,-0.0242,-0.0238,-0.0235,-0.0276,-0.0276,-0.0276,0,0,0.0144,0.0123,0.0128,0.0112,0.0083,0.0061,0.006,0.002,0.0004,-0.0016,-0.0053,-0.0081,-0.0128,-0.015,-0.0168,-0.0153,-0.0195,-0.0165,-0.0115,-0.0152,-0.0149,-0.0147,-0.0171,-0.0171,-0.0159,-0.0159,-0.0159,0,0.0156,0.0161,0.0124,0.0128,0.0129,0.0078,0.0093,0.0066,0.0024,0.0024,-0.0009,-0.0066,-0.0108,-0.0115,-0.0112,-0.0139,-0.0166,-0.0134,-0.0144,-0.0142,-0.0141,-0.0167,-0.0168,-0.0155,-0.0156,-0.0156,-0.0156,0,0.0183,0.019,0.0193,0.0188,0.0181,0.0183,0.0153,0.0141,0.0115,0.0095,0.0074,0.0009,-0.0019,-0.0041,-0.0075,-0.008,-0.0103,-0.0135,-0.0156,-0.0133,-0.0161,-0.0164,-0.015,-0.0151,-0.0152,-0.0153,0,0,0.021,0.0214,0.0216,0.0242,0.0219,0.0225,0.0224,0.0221,0.0244,0.0178,0.0197,0.0127,0.0092,0.0069,0.0018,-0.0018,-0.0039,-0.0067,-0.0071,-0.0083,-0.0112,-0.0137,-0.0144,-0.0077,-0.0077,-0.0077,-0.0132,0,0.0248,0.0287,0.0274,0.0322,0.0347,0.0317,0.0328,0.0318,0.0303,0.0304,0.0229,0.0219,0.0134,0.0125,0.0073,-0.0006,-0.0045,-0.0021,-0.014,-0.0142,-0.0162,-0.0147,-0.0119,-0.0167,-0.0136,-0.0136,-0.0137,0,0.0283,0.0312,0.0364,0.0416,0.0424,0.044,0.0477,0.0485,0.0465,0.0453,0.0416,0.0355,0.0295,0.0215,0.0084,0.0101,0.0004,-0.007,-0.0075,-0.0123,-0.0173,-0.0188,-0.0174,-0.0142,-0.0141,-0.0141,-0.0141,0,0.0338,0.0384,0.0438,0.045,0.0483,0.0508,0.0527,0.0531,0.0573,0.0553,0.0571,0.0476,0.0446,0.0299,0.013,0.0109,-0.0016,-0.0065,-0.018,-0.0182,-0.0194,-0.0197,-0.0159,-0.0159,-0.0158,-0.0158,-0.0158,0,0.039,0.0439,0.0471,0.0501,0.0587,0.0581,0.067,0.0671,0.07,0.0776,0.0655,0.0676,0.0464,0.0357,0.018,-0.0001,0.0017,-0.0162,-0.0198,-0.0168,-0.0168,-0.0177,-0.0178,-0.016,-0.016,-0.0159,-0.0159,0,0.0442,0.0455,0.0533,0.0586,0.0613,0.0677,0.0773,0.0843,0.0843,0.0934,0.0931,0.084,0.0698,0.0474,0.0258,0.0089,-0.0097,-0.0169,-0.0114,-0.0143,-0.0252,-0.0249,-0.0297,-0.0299,-0.03,-0.0301,-0.0302,0,0.047,0.0507,0.0602,0.0669,0.0699,0.0795,0.0868,0.091,0.1002,0.1044,0.1099,0.0982,0.0915,0.0573,0.0258,-0.0049,-0.0093,-0.0216,-0.0262,-0.0236,-0.0266,-0.0261,-0.0257,-0.0246,-0.0247,-0.0247,-0.0247,0,0.0533,0.056,0.0633,0.0764,0.0859,0.0983,0.1095,0.1186,0.1253,0.1303,0.1355,0.1294,0.0969,0.0653,0.0228,0.0024,-0.0171,-0.0231,-0.0212,-0.0217,-0.0193,-0.0221,-0.0217,-0.0249,-0.0249,-0.0249,-0.0249,-0.0249,0.0586,0.0654,0.0748,0.0881,0.1,0.1156,0.1276,0.1389,0.152,0.1609,0.1546,0.1455,0.1094,0.0541,0.0178,-0.0191,-0.0184,-0.0314,-0.0311,-0.0308,-0.0294,-0.0274,-0.0341,-0.0341,-0.0342,-0.0342,-0.0342,0,0.0656,0.0736,0.0863,0.1027,0.1172,0.1222,0.1422,0.1536,0.1688,0.1731,0.1739,0.1392,0.1012,0.0603,0.0046,-0.0292,-0.0309,-0.0383,-0.0339,-0.0334,-0.0331,-0.0317,-0.0371,-0.0372,-0.0373,-0.0374,0,0,0.0698,0.0827,0.0895,0.114,0.1264,0.1472,0.1596,0.1738,0.1816,0.1842,0.1777,0.1645,0.1133,0.0728,0.0261,-0.0056,-0.0107,-0.0107,-0.0048,0.0064,0.0072,-0.0259,-0.0227,0,0,0,0,0]}],[{"header":{"parameterUnit":"m.s-1","parameterCategory":2,"la1":30.2991,"la2":30.254,"lo1":-89.0895,"lo2":-89.0444,"dy":0.0017,"dx":0.0017,"nx":28,"ny":28,"refTime":"2025-03-11T03:00:00:Z","depth":"4","parameterNumber":2,"parameterNumberName":"U-component_of_CURRENTS"},"data":[0,0,0,0,0,0,0,0,0,0,0,0,0,0,0,0,0,0,0,0,0,0,0,0,0,0,0,0,0,0,0,0,0,0,0,0,0,0,0,0,0,0,0,0,0,0,0,0,0,0,0,0,0,0,0,0,0,0,0.1558,0.156,0,0.1677,0.1678,0.1679,0.1753,0.1753,0.1754,0.1754,0.1855,0.1857,0.1859,0,0,0,0,0,0,0,0,0,0,0,0,0,0.1401,0.1403,0.1558,0.156,0.1561,0.1677,0.1678,0.168,0.1753,0.1753,0.1754,0.1755,0.1854,0.1857,0.1859,0,0,0,0,0,0,0,0,0,0,0,0,0,0.1488,0.1404,0.1558,0.1613,0.1619,0.1676,0.1678,0.168,0.1753,0.1753,0.1754,0.1755,0.1853,0.1856,0.1859,0.1863,0,0,0.1869,0.1871,0,0,0,0,0,0,0,0,0.1483,0.1493,0.1603,0.1609,0.1617,0.1702,0.166,0.1741,0.1752,0.17,0.1754,0.1755,0.1803,0.181,0.1828,0.1867,0.1872,0.187,0.1872,0.1873,0.1874,0,0,0,0,0,0,0,0.1477,0.1489,0.1603,0.1605,0.1613,0.1634,0.1647,0.1675,0.1744,0.1705,0.1711,0.1727,0.1806,0.1825,0.1831,0.1873,0.187,0.1872,0.1874,0.1876,0.2006,0.2008,0,0,0,0,0,0,0.1465,0.1483,0.16,0.1607,0.1552,0.1636,0.1651,0.1673,0.1744,0.1756,0.1726,0.173,0.1819,0.1827,0.1835,0.1919,0.1873,0.1876,0.1878,0.2005,0.2007,0.2008,0,0,0,0,0,0,0.1461,0.1474,0.1595,0.1549,0.1566,0.1638,0.1662,0.1675,0.1732,0.176,0.1772,0.1775,0.182,0.183,0.1893,0.1921,0.1877,0.188,0.2003,0.2006,0.2008,0.2039,0,0,0,0,0,0,0.1456,0.1472,0.1501,0.1548,0.1568,0.1654,0.1662,0.1676,0.1739,0.1746,0.1806,0.1814,0.1822,0.1889,0.1897,0.1924,0.1883,0.2001,0.2004,0.2007,0.2036,0.2042,0.2047,0,0,0,0,0,0.145,0.1485,0.1502,0.1517,0.16,0.1656,0.1669,0.1721,0.1741,0.1775,0.1814,0.1814,0.1912,0.1893,0.1902,0.1931,0.2,0.2003,0.2007,0.2033,0.2041,0.2047,0,0,0,0,0,0,0.1442,0.1497,0.1516,0.157,0.162,0.167,0.1715,0.1742,0.1801,0.1819,0.1837,0.1849,0.1913,0.1921,0.1899,0.1978,0.1955,0.196,0.1972,0.1979,0.1985,0.1971,0.1886,0,0,0,0,0,0.1449,0.1489,0.154,0.1589,0.1616,0.167,0.1707,0.1742,0.1791,0.182,0.1858,0.1896,0.1928,0.1954,0.1985,0.2031,0.2044,0.2056,0.2061,0.2066,0.2062,0.2102,0.2111,0.202,0.202,0.202,0,0,0.1459,0.1497,0.1521,0.159,0.1635,0.1676,0.1696,0.1765,0.1798,0.1819,0.1891,0.1924,0.1946,0.1997,0.2026,0.2012,0.2105,0.207,0.2074,0.2068,0.2107,0.2116,0.2123,0.2022,0.2022,0.2021,0,0,0.1485,0.1536,0.1571,0.1612,0.1685,0.1715,0.174,0.1809,0.1845,0.1907,0.1928,0.1978,0.2036,0.2052,0.2064,0.2121,0.2135,0.2141,0.2158,0.2198,0.2205,0.2211,0.2261,0.2271,0.2141,0.2141,0.2141,0,0.1496,0.1544,0.1593,0.1635,0.1666,0.1732,0.1767,0.1813,0.1893,0.1919,0.1937,0.203,0.2052,0.2097,0.2117,0.2131,0.2164,0.2128,0.2204,0.221,0.2216,0.2265,0.2276,0.2143,0.2143,0.2143,0.2142,0,0.1533,0.1582,0.1613,0.1675,0.1715,0.1767,0.1818,0.1872,0.192,0.196,0.2036,0.2075,0.2129,0.2143,0.2146,0.2205,0.222,0.2207,0.2182,0.2227,0.2276,0.2287,0.2146,0.2145,0.2144,0.2144,0,0,0.1523,0.1617,0.1629,0.1652,0.1739,0.1768,0.1828,0.1889,0.1936,0.2011,0.2068,0.2121,0.2167,0.2183,0.2208,0.2235,0.2311,0.2245,0.2246,0.2286,0.2421,0.2286,0.2286,0.232,0.2321,0.2323,0.2445,0,0.1538,0.1598,0.1645,0.17,0.1728,0.1791,0.1839,0.1903,0.1969,0.2048,0.2098,0.2178,0.2176,0.2226,0.2253,0.2305,0.234,0.228,0.2378,0.2381,0.2248,0.2293,0.2328,0.2453,0.2456,0.2458,0.2459,0,0.1546,0.1582,0.1631,0.1696,0.1717,0.1764,0.184,0.1898,0.201,0.2069,0.2154,0.2219,0.23,0.2287,0.2389,0.236,0.2395,0.2417,0.2422,0.2286,0.2264,0.2395,0.2479,0.2478,0.2476,0.2475,0.2474,0,0.1483,0.1566,0.1598,0.1623,0.1713,0.1747,0.1807,0.1909,0.1968,0.2109,0.2186,0.2281,0.2367,0.2411,0.2481,0.2453,0.2583,0.2547,0.2455,0.2448,0.2519,0.2511,0.2604,0.2603,0.2603,0.2603,0.2602,0,0.1457,0.1485,0.1578,0.1595,0.1641,0.1718,0.1793,0.1872,0.2,0.2084,0.2213,0.2298,0.2406,0.2496,0.2519,0.2532,0.2625,0.2462,0.2464,0.2534,0.2525,0.2529,0.2518,0.2607,0.2606,0.2606,0.2605,0,0.138,0.1451,0.1486,0.158,0.1617,0.1651,0.1783,0.1839,0.1985,0.2104,0.2165,0.2346,0.2468,0.2555,0.2651,0.2582,0.2603,0.2583,0.2685,0.269,0.2433,0.2424,0.2476,0.2472,0.2469,0.2466,0.2464,0,0.1344,0.1357,0.1454,0.1484,0.1535,0.1609,0.1669,0.1817,0.1882,0.2115,0.2163,0.2352,0.2454,0.2499,0.2585,0.2626,0.2591,0.2582,0.2456,0.242,0.2418,0.2414,0.2409,0.2458,0.2458,0.2457,0.2456,0,0.1259,0.1308,0.1338,0.1403,0.1468,0.1522,0.1621,0.1657,0.1839,0.1994,0.2122,0.2207,0.2345,0.2419,0.2483,0.2496,0.2567,0.2547,0.2552,0.2433,0.24,0.24,0.2399,0.2444,0.2446,0.2447,0.2448,0,0.1197,0.1193,0.1252,0.1301,0.1377,0.1412,0.1476,0.1568,0.166,0.1911,0.1952,0.2163,0.2327,0.2357,0.2411,0.2421,0.2366,0.2263,0.2281,0.2295,0.2174,0.2102,0.2058,0,0,0,0,0,0.1112,0.1106,0.1147,0.1193,0.1266,0.1318,0.1435,0.1507,0.1688,0.1731,0.1833,0.1957,0.2067,0.2175,0.2147,0.2311,0.2359,0.2266,0.2245,0.2381,0.2394,0.2266,0,0,0,0,0,0,0.106,0.1078,0.1105,0.1105,0.1119,0.1189,0.1261,0.1381,0.141,0.1605,0.1682,0.1832,0.1971,0.207,0.2112,0.2139,0.2082,0.2389,0.2383,0.2373,0.2385,0.2396,0.2269,0,0,0,0,0]},{"header":{"parameterUnit":"m.s-1","parameterCategory":2,"la1":30.2991,"la2":30.254,"lo1":-89.0895,"lo2":-89.0444,"dy":0.0017,"dx":0.0017,"nx":28,"ny":28,"refTime":"2025-03-11T03:00:00:Z","depth":"4","parameterNumber":3,"parameterNumberName":"V-component_of_CURRENTS"},"data":[0,0,0,0,0,0,0,0,0,0,0,0,0,0,0,0,0,0,0,0,0,0,0,0,0,0,0,0,0,0,0,0,0,0,0,0,0,0,0,0,0,0,0,0,0,0,0,0,0,0,0,0,0,0,0,0,0,0,0.0093,0.0092,0,0.0025,0.0025,0.0024,-0.0008,-0.0008,-0.0008,-0.0008,-0.0086,-0.0088,-0.009,0,0,0,0,0,0,0,0,0,0,0,0,0,0.0169,0.0168,0.0093,0.0092,0.0092,0.0026,0.0025,0.0024,-0.0008,-0.0008,-0.0008,-0.0008,-0.0085,-0.0088,-0.009,0,0,0,0,0,0,0,0,0,0,0,0,0,0.0122,0.0168,0.0093,0.0068,0.0065,0.0026,0.0025,0.0023,-0.0008,-0.0008,-0.0008,-0.0008,-0.0084,-0.0087,-0.0091,-0.0114,0,0,-0.01,-0.0102,0,0,0,0,0,0,0,0,0.0125,0.0119,0.0073,0.007,0.0067,0.0018,0.0023,-0.0023,-0.0008,0.0019,-0.0008,-0.0008,-0.0052,-0.0058,-0.0071,-0.0117,-0.0121,-0.0101,-0.0103,-0.0104,-0.0105,0,0,0,0,0,0,0,0.0128,0.0122,0.0066,0.0072,0.0068,0.0052,0.0045,0.0014,-0.0017,0.0017,0.0014,0.0008,-0.0054,-0.0068,-0.0074,-0.0122,-0.0101,-0.0104,-0.0106,-0.0107,-0.0173,-0.0173,0,0,0,0,0,0,0.0139,0.0125,0.0068,0.0064,0.0097,0.005,0.0043,0.0033,-0.0017,-0.0024,0.0008,0.0007,-0.0063,-0.007,-0.0076,-0.0081,-0.0104,-0.0107,-0.0109,-0.0174,-0.0173,-0.0173,0,0,0,0,0,0,0.0141,0.0134,0.0071,0.0094,0.0084,0.0049,0.0038,0.0031,0.0017,-0.0023,-0.003,0.0001,-0.0063,-0.0072,-0.0101,-0.0085,-0.0109,-0.0112,-0.0174,-0.0173,-0.0173,-0.0107,0,0,0,0,0,0,0.0143,0.0135,0.0131,0.0094,0.0084,0.0049,0.0037,0.003,0.0013,0.0011,-0.0032,-0.0039,-0.0063,-0.0096,-0.0104,-0.009,-0.0114,-0.0174,-0.0174,-0.0173,-0.0109,-0.0104,-0.01,0,0,0,0,0,0.0146,0.0138,0.0131,0.0124,0.0079,0.0049,0.0042,0.0017,0.0013,0.0005,-0.002,-0.0038,-0.0099,-0.0099,-0.0108,-0.0095,-0.0174,-0.0174,-0.0173,-0.0111,-0.0105,-0.01,0,0,0,0,0,0,0.0161,0.0133,0.0125,0.0106,0.0082,0.0044,0.0034,0.0019,-0.0008,-0.0007,-0.0042,-0.0052,-0.0071,-0.0096,-0.0094,-0.0114,-0.0137,-0.0139,-0.0086,-0.0081,-0.0077,-0.0047,-0.0117,0,0,0,0,0,0.0165,0.0156,0.0124,0.011,0.0101,0.007,0.0055,0.0039,0.0011,-0.0,-0.0029,-0.0056,-0.0078,-0.0089,-0.0119,-0.0133,-0.016,-0.0129,-0.0125,-0.012,-0.0103,-0.0129,-0.0125,-0.0172,-0.0172,-0.0172,0,0,0.0167,0.0151,0.0145,0.0114,0.0095,0.0089,0.0061,0.0042,0.0043,-0.0005,-0.0014,-0.0046,-0.008,-0.0093,-0.0102,-0.011,-0.0126,-0.012,-0.0116,-0.0101,-0.0128,-0.0123,-0.0119,-0.0172,-0.0172,-0.0172,0,0,0.0173,0.0154,0.0152,0.0139,0.0116,0.01,0.0098,0.0064,0.0054,0.0034,0.001,-0.0009,-0.0054,-0.0064,-0.0076,-0.0065,-0.0105,-0.0078,-0.0025,-0.005,-0.0046,-0.0043,-0.009,-0.0091,-0.007,-0.007,-0.007,0,0.0177,0.0176,0.0146,0.0146,0.015,0.0111,0.0122,0.0101,0.0064,0.007,0.004,-0.0001,-0.0034,-0.0028,-0.0023,-0.0051,-0.0082,-0.0041,-0.0043,-0.004,-0.0037,-0.0086,-0.0088,-0.0067,-0.0067,-0.0067,-0.0068,0,0.0186,0.019,0.0189,0.0186,0.0182,0.0181,0.0161,0.0153,0.0137,0.0124,0.0114,0.0063,0.0048,0.0031,0.0007,0.0016,-0.0019,-0.0037,-0.0051,-0.0028,-0.0082,-0.0085,-0.0062,-0.0063,-0.0064,-0.0065,0,0,0.0189,0.0197,0.0199,0.0224,0.0211,0.0215,0.0219,0.0225,0.0246,0.0198,0.0217,0.0175,0.0152,0.0137,0.01,0.008,0.0058,0.0036,0.0033,-0.0001,-0.0016,-0.0043,-0.005,0.0039,0.0039,0.0039,-0.0066,0,0.0212,0.0241,0.0236,0.0278,0.0299,0.0287,0.0302,0.0303,0.0291,0.0293,0.0249,0.0243,0.0191,0.0184,0.0156,0.0081,0.0055,0.0087,-0.004,-0.0044,-0.0063,-0.0052,0.004,-0.0069,-0.007,-0.0071,-0.0071,0,0.0228,0.0254,0.0299,0.0354,0.0363,0.0381,0.0424,0.0432,0.0424,0.0416,0.0399,0.0351,0.0315,0.0262,0.0155,0.0175,0.0095,0.003,0.0024,-0.002,-0.0077,-0.0095,-0.0078,-0.0078,-0.0077,-0.0077,-0.0076,0,0.0263,0.0306,0.0356,0.0369,0.0408,0.0438,0.0463,0.0475,0.0504,0.0496,0.0503,0.0443,0.0406,0.0306,0.0162,0.016,0.0028,0.0005,-0.0096,-0.0101,-0.0075,-0.0077,-0.0058,-0.0058,-0.0058,-0.0057,-0.0057,0,0.0294,0.0338,0.038,0.0407,0.0486,0.0495,0.0571,0.058,0.06,0.0639,0.0573,0.0566,0.0417,0.0315,0.0186,0.0027,0.0042,-0.0081,-0.012,-0.0049,-0.0047,-0.0079,-0.008,-0.0061,-0.006,-0.006,-0.0059,0,0.0322,0.0343,0.0412,0.0473,0.0502,0.056,0.0645,0.0694,0.07,0.074,0.0738,0.0655,0.0516,0.035,0.017,0.006,-0.0089,-0.0146,-0.0069,-0.0105,-0.0211,-0.0207,-0.0265,-0.0267,-0.0268,-0.0269,-0.027,0,0.0335,0.0368,0.0462,0.0516,0.055,0.0637,0.0697,0.0741,0.0789,0.0789,0.0803,0.0687,0.0605,0.0334,0.0153,-0.0101,-0.0134,-0.0215,-0.0195,-0.0194,-0.0227,-0.0222,-0.0217,-0.0273,-0.0273,-0.0273,-0.0274,0,0.0367,0.0399,0.0461,0.0566,0.0647,0.0745,0.0827,0.0863,0.09,0.0906,0.0861,0.0717,0.0554,0.0335,0.0133,-0.0046,-0.0164,-0.023,-0.0228,-0.021,-0.0204,-0.0234,-0.0227,-0.0278,-0.0278,-0.0277,-0.0277,0,0.0395,0.0445,0.0523,0.0624,0.0724,0.0815,0.086,0.0907,0.095,0.0934,0.0911,0.0738,0.0639,0.0362,0.0177,-0.0007,-0.0052,-0.0102,-0.0108,-0.0105,-0.0029,0.0003,-0.0032,0,0,0,0,0,0.042,0.0483,0.0574,0.0688,0.0782,0.0847,0.0931,0.0962,0.0982,0.0963,0.0942,0.079,0.0512,0.0393,0.0206,0.0134,-0.0096,-0.0093,-0.0159,-0.0305,-0.0299,-0.024,0,0,0,0,0,0,0.0441,0.0528,0.058,0.0717,0.0797,0.0912,0.0967,0.0984,0.0972,0.0957,0.0816,0.0748,0.0479,0.0626,0.0208,0.015,0.0081,-0.022,-0.0224,-0.0308,-0.0303,-0.0299,-0.0236,0,0,0,0,0]}]]